SCP
0 0 0 0 0 0 0 0 0 0 0 1 1 1 1 1 1 0 0 0 0 0 0 0 0 0 0 0 0 0 0 0 0 0 0 0 0 0 0 0 0 0 0 0
0 0 0 0 0 0 0 0 0 0 0 1 1 1 1 1 0 0 0 0 0 0 0 0 0 0 0 0 0 0 0 0 0 0 0 0 0 0 0 0 0 0 0 0
0 0 0 0 0 0 0 0 0 0 0 1 1 1 0 0 0 0 0 0 0 0 0 0 0 0 0 0 0 0 0 0 0 0 0 0 0 0 0 0 0 0 0 0
0 0 0 0 0 0 0 0 0 0 1 1 1 0 0 0 0 0 0 0 0 0 0 0 0 0 0 0 0 0 0 0 0 0 0 0 0 0 0 0 0 0 0 0
0 0 0 0 0 0 0 0 0 0 0 0 0 0 0 0 0 0 0 0 0 0 0 0 0 0 0 0 0 0 0 0 0 0 0 0 0 0 0 0 0 0 0 0
0 0 0 0 0 0 0 0 0 0 0 0 0 0 0 0 0 0 0 0 0 0 0 0 0 0 0 0 0 0 0 0 0 0 0 0 0 0 0 0 0 0 0 0
0 0 0 0 0 0 0 0 0 0 0 0 0 0 0 0 0 0 0 0 0 0 0 0 0 0 0 0 0 0 0 0 0 0 0 0 0 0 0 0 0 0 0 0
0 0 0 0 0 0 0 0 0 0 0 0 0 0 0 0 0 0 0 0 0 0 0 0 0 0 0 0 0 0 0 0 0 0 0 0 0 0 0 0 0 0 0 0
0 0 0 0 0 0 0 0 0 0 0 0 0 0 0 0 0 0 0 0 0 0 0 0 0 0 0 0 0 0 0 0 0 0 0 0 0 0 0 0 0 0 0 0
0 0 0 0 0 0 0 0 0 0 0 0 0 0 0 0 0 0 0 0 0 0 0 0 0 0 0 0 0 0 0 0 0 0 0 0 0 0 0 0 0 0 0 0
0 0 0 0 0 0 0 0 0 0 0 0 0 0 0 0 0 0 0 0 0 0 0 0 0 0 0 0 0 0 0 0 0 0 0 0 0 0 0 0 0 0 0 0
0 0 0 0 0 0 0 0 0 0 0 0 0 0 0 0 0 0 0 0 0 0 0 0 0 0 0 0 0 0 0 0 0 0 0 0 0 0 0 0 0 0 0 0
0 0 0 0 0 0 0 0 0 0 0 0 0 0 0 0 0 0 0 0 0 0 0 0 0 0 0 0 0 0 0 0 0 0 0 0 0 0 0 0 0 0 0 0
0 0 0 0 0 0 0 0 0 0 0 0 0 0 0 0 0 0 0 0 0 0 0 0 0 0 0 0 0 0 0 0 0 0 0 0 0 0 0 0 0 0 0 0
0 0 0 0 0 0 0 0 0 0 0 0 0 0 0 0 0 0 0 0 0 0 0 0 0 0 0 0 0 0 0 0 0 0 0 0 0 0 0 0 0 0 0 0
0 0 0 0 0 0 0 0 0 0 0 0 0 0 0 0 0 0 0 0 0 0 0 0 0 0 0 0 0 0 0 0 0 0 0 0 0 0 0 0 0 0 0 0
0 0 0 0 0 0 0 0 0 0 0 0 0 0 0 0 0 0 0 0 0 0 0 0 0 0 0 0 0 0 0 0 0 0 0 0 0 0 0 0 0 0 0 0
0 0 0 0 0 0 0 0 0 0 0 0 0 0 0 0 0 0 0 0 0 0 0 0 0 0 0 0 0 0 0 0 0 0 0 0 0 0 0 0 0 0 0 0
0 0 0 0 0 0 0 0 0 0 0 0 0 0 0 0 0 0 0 0 0 0 0 0 0 0 0 0 0 0 0 0 0 0 0 0 0 0 0 0 0 0 0 0
0 0 0 0 0 0 0 0 0 0 0 0 0 0 0 0 0 0 0 0 0 0 0 0 0 0 0 0 0 0 0 0 0 0 0 0 0 0 0 0 0 0 0 0
0 0 0 0 0 0 0 0 0 0 0 0 0 0 0 0 0 0 0 0 0 0 0 0 0 0 0 0 0 0 0 0 0 0 0 0 0 0 0 0 0 0 0 0
0 0 0 0 0 0 0 0 0 0 0 0 0 0 0 0 0 0 0 0 0 0 0 0 0 0 0 0 0 0 0 0 0 0 0 0 0 0 0 0 0 0 0 0
0 0 0 0 0 0 0 0 0 0 0 0 0 0 0 0 0 0 0 0 0 0 0 0 0 0 0 0 0 0 0 0 0 0 0 0 0 0 0 0 0 0 0 0
0 0 0 0 0 0 0 0 0 0 0 0 0 0 0 0 0 0 0 0 0 0 0 0 0 0 0 0 0 0 0 0 0 0 0 0 0 0 0 0 0 0 0 0
0 0 0 0 0 0 0 0 0 0 0 0 0 0 0 0 0 0 0 0 0 0 0 0 0 0 0 0 0 0 0 0 0 0 0 0 0 0 0 0 0 0 0 0
0 0 0 0 0 0 0 0 0 0 0 0 0 0 0 0 0 0 0 0 0 0 0 0 0 0 0 0 0 0 0 0 0 0 0 0 0 0 0 0 0 0 0 0
1 0 0 0 0 0 0 0 0 0 0 0 0 0 0 0 0 0 0 0 0 0 0 0 0 0 0 0 0 0 0 0 0 0 0 0 0 0 0 0 0 0 0 0
Wind_Speed
7 5 5 6 5 5 6 7 8 3 3 9 12 13 13 12 12 11 10 10 9 9 9 10 10 11 11 12 12 12 13 13 13 12 12 11 11 11 10 10 10 10 10 10
6 5 6 6 4 4 3 4 3 2 3 9 13 13 13 13 13 12 11 10 10 10 10 10 10 11 11 11 11 11 13 13 12 11 11 11 10 10 10 10 9 9 9 9
5 3 7 6 2 3 1 1 2 2 5 14 14 13 14 14 13 12 12 11 11 10 9 9 10 11 11 11 11 11 12 11 10 10 10 9 10 10 9 9 9 9 8 9
5 5 6 3 3 1 1 0 1 3 10 12 12 11 11 12 14 13 12 12 11 10 9 9 10 10 11 11 10 11 11 10 10 9 9 9 9 9 8 8 8 7 8 8
5 6 4 5 4 3 3 1 2 7 12 13 15 12 8 9 11 12 12 12 11 11 10 10 10 10 10 10 10 10 10 9 9 8 9 8 8 8 7 7 7 7 7 8
6 7 4 5 5 1 4 3 6 10 14 15 14 8 7 11 12 13 12 11 12 11 11 11 10 9 10 10 9 9 9 8 8 7 8 8 7 7 7 6 6 7 7 7
8 7 1 6 3 4 5 4 10 11 14 14 8 6 15 15 14 13 13 13 12 11 10 10 9 9 10 9 9 8 8 8 7 7 7 7 6 6 6 6 6 6 7 6
5 5 3 5 3 1 5 7 10 12 12 11 12 17 17 16 15 15 14 14 13 11 10 10 9 9 9 9 8 8 7 7 7 6 5 6 6 6 5 5 6 6 5 5
3 5 6 3 4 5 5 9 11 12 14 15 16 17 17 16 15 14 14 13 12 12 12 10 9 8 10 9 7 7 7 7 7 6 5 5 5 5 5 3 4 4 4 5
4 6 6 5 6 6 8 11 12 14 15 16 17 17 16 15 13 13 12 12 11 12 11 10 9 9 9 8 7 7 6 6 6 5 6 5 3 4 4 4 4 4 4 5
4 8 8 6 7 10 11 14 15 15 15 15 18 17 16 14 14 12 11 10 10 10 11 11 10 9 8 7 6 6 6 5 5 5 6 5 6 6 5 8 7 6 5 4
2 10 8 10 10 13 15 15 15 15 15 15 16 17 16 14 13 12 12 10 10 10 11 11 10 9 7 6 6 5 5 4 4 5 4 5 6 7 8 7 6 6 7 7
7 11 12 15 14 14 15 16 15 16 16 16 15 15 15 14 13 12 12 11 11 10 10 10 9 8 7 6 5 4 4 4 3 4 4 4 4 5 7 6 4 4 4 4
16 17 17 15 15 15 16 16 16 16 16 15 14 14 14 14 13 12 12 11 11 11 10 9 8 8 7 6 5 4 4 4 2 3 3 3 4 4 4 5 6 6 6 4
13 12 16 17 16 16 16 17 17 16 16 15 14 14 14 14 13 12 11 11 11 11 10 9 8 7 6 6 5 4 3 3 3 3 3 4 3 3 3 4 4 4 6 7
15 18 19 19 18 18 18 18 17 17 16 15 14 14 14 13 13 12 11 11 10 10 9 8 7 7 6 5 5 4 4 4 1 3 4 4 3 3 3 3 3 3 3 3
21 21 20 20 19 18 18 17 16 17 16 16 15 14 14 13 13 12 11 10 8 8 7 6 6 6 6 6 5 4 5 7 5 4 3 3 3 3 3 2 2 2 3 5
18 19 19 20 19 18 17 17 17 17 16 16 16 15 14 13 13 12 11 10 9 8 7 6 6 6 6 6 4 3 4 5 5 3 4 3 3 3 3 2 2 2 3 5
18 19 19 19 18 17 17 17 17 16 16 15 15 14 13 13 12 11 10 9 8 8 7 7 4 5 6 5 2 4 4 4 4 4 4 5 4 3 3 2 2 2 1 1
19 20 20 19 18 18 17 17 16 16 15 15 15 14 13 13 12 11 9 7 5 5 8 8 8 6 6 6 4 4 4 4 4 4 4 4 4 3 3 3 2 2 1 0
21 21 21 19 18 18 17 17 16 16 15 15 15 14 13 12 11 9 8 7 7 7 8 7 6 6 6 5 6 4 4 4 4 4 4 4 4 3 3 3 2 2 1 1
20 20 20 19 18 17 16 16 16 16 16 15 15 14 13 12 10 8 6 4 8 7 7 8 7 6 5 4 5 3 4 4 4 4 4 4 3 3 3 3 3 2 2 1
19 19 19 19 18 17 17 16 16 15 15 15 14 13 12 10 8 7 7 6 8 8 7 6 9 8 4 7 4 3 4 4 4 4 4 4 4 4 4 4 3 2 2 1
19 19 18 18 18 18 17 16 16 13 14 14 13 12 11 9 7 6 6 8 8 8 6 9 9 7 7 6 4 4 4 4 4 4 4 4 4 4 4 3 3 3 2 2
19 19 19 19 18 15 16 16 16 15 15 12 13 13 10 8 7 7 7 10 10 9 8 10 9 8 8 6 4 4 4 3 2 3 4 4 4 4 4 4 3 3 2 2
18 16 15 15 13 13 13 13 13 12 12 12 11 11 9 7 8 8 7 10 12 9 8 9 10 10 8 6 5 4 4 5 5 5 4 4 5 4 4 4 5 3 3 2
17 15 13 14 13 13 13 13 13 13 13 12 12 11 11 9 9 9 9 9 10 10 8 8 9 9 7 6 5 5 5 4 5 5 5 5 5 5 5 5 4 4 4 4
Wind_Direction
279 281 272 274 281 274 268 281 289 293 152 154 152 145 139 136 133 130 125 118 113 109 105 103 100 97 95 95 94 95 94 92 91 91 90 90 88 88 89 89 89 87 85 81
261 244 246 252 261 271 277 285 276 213 112 131 135 135 139 143 141 137 132 127 120 116 114 110 109 106 103 101 102 101 99 99 100 100 97 93 92 92 89 86 85 84 81 79
269 251 253 246 235 255 268 333 292 281 127 137 141 148 152 152 147 142 140 136 129 125 120 118 115 114 112 111 109 105 103 103 102 101 99 98 98 95 92 90 88 85 83 80
277 257 260 75 89 253 252 110 360 94 131 146 144 140 142 149 145 142 143 137 132 128 121 119 118 117 115 114 112 108 106 104 104 103 99 98 96 94 95 95 93 89 84 82
275 276 278 139 160 190 245 209 108 133 133 128 122 115 117 135 139 142 141 136 132 130 128 126 123 123 121 118 115 110 106 105 103 102 100 97 94 95 97 99 98 95 87 83
271 291 310 89 110 155 257 188 134 143 143 144 151 150 141 141 136 134 134 132 132 132 132 130 129 131 126 122 118 112 107 105 103 99 94 91 91 94 96 100 101 97 89 80
268 279 30 86 113 209 260 80 138 149 152 158 166 121 131 137 135 134 133 135 135 135 134 133 137 136 129 126 118 112 110 107 103 99 95 92 93 96 101 100 97 95 96 90
266 276 78 97 169 289 53 108 137 143 146 136 113 116 128 134 136 138 138 141 141 138 134 137 141 137 128 120 117 117 114 108 103 97 93 98 98 97 98 105 116 113 108 103
357 41 80 80 66 74 107 128 134 136 133 129 127 131 133 136 138 141 142 142 144 143 139 141 144 138 126 124 127 124 118 111 107 102 92 92 98 104 109 112 107 107 107 100
138 116 115 110 106 110 120 127 130 131 132 134 133 135 136 137 138 140 139 142 147 147 143 143 144 133 128 131 131 125 119 116 115 114 109 95 83 83 86 90 96 99 92 90
142 130 133 125 121 122 121 124 126 130 133 135 136 138 139 139 141 142 141 146 150 147 144 143 141 136 137 138 139 132 128 125 122 111 102 99 78 52 51 60 37 27 55 65
169 159 152 135 133 132 131 130 131 130 129 136 137 137 139 139 140 142 144 148 148 147 144 143 144 144 144 144 144 140 140 136 125 117 119 118 119 111 60 63 76 56 32 16
108 130 119 128 133 133 131 130 131 131 132 134 135 138 138 138 141 142 144 148 148 147 144 146 146 145 146 147 145 139 129 122 120 118 126 125 120 127 131 127 117 97 75 51
118 118 124 132 132 132 129 128 128 128 130 132 136 139 137 137 140 144 147 147 147 146 145 145 146 146 148 151 153 151 141 132 147 130 126 122 123 127 128 134 140 137 131 117
140 133 132 131 130 131 132 132 130 130 132 134 139 139 139 139 141 142 143 145 147 149 150 150 152 149 157 162 161 159 158 145 140 129 133 126 130 129 121 117 117 119 131 140
132 128 132 135 137 140 141 140 138 138 139 139 140 139 139 138 137 139 143 147 151 153 153 155 154 157 160 158 159 155 129 93 143 152 138 136 140 138 131 128 123 116 108 93
143 145 146 144 146 147 147 145 143 142 142 142 141 140 140 140 140 143 147 149 146 141 146 154 156 159 159 159 172 164 147 140 174 185 148 140 144 144 137 132 127 122 100 72
152 149 150 149 148 148 146 144 143 143 143 142 142 144 145 146 146 146 146 145 145 144 147 150 148 155 154 156 170 166 150 156 165 149 142 142 145 150 147 138 134 132 130 139
144 145 146 146 146 145 145 145 144 143 142 145 147 147 148 147 146 147 149 154 158 158 153 140 136 169 148 137 176 170 159 155 153 150 147 142 181 165 159 160 146 138 130 122
143 144 145 145 146 146 145 145 143 144 147 149 149 149 150 149 150 152 158 165 161 134 142 150 171 167 157 156 235 175 154 158 153 151 157 166 168 164 165 158 153 150 148 115
146 147 148 149 148 148 147 147 147 149 151 153 154 154 152 153 158 161 175 162 138 140 144 153 180 166 163 152 219 186 160 159 158 158 163 165 166 166 163 160 162 162 162 154
150 151 152 150 150 149 149 151 152 152 154 157 158 157 156 161 165 171 182 147 141 153 174 173 172 126 129 197 196 167 155 157 165 163 165 167 170 174 172 172 172 168 163 143
153 153 153 153 152 150 152 155 156 157 160 162 162 163 166 169 170 173 163 153 154 174 197 153 120 129 174 228 197 168 154 162 169 167 169 175 175 175 172 176 173 167 161 160
153 154 154 153 152 154 158 160 159 161 164 165 166 168 169 169 175 176 136 133 143 169 181 123 139 165 224 231 197 184 169 173 180 179 172 172 171 171 165 171 172 165 160 173
155 155 155 157 159 161 160 160 160 165 168 169 168 171 178 179 172 159 148 152 156 185 170 146 167 191 225 216 194 189 180 164 168 175 167 172 178 172 167 174 178 180 179 180
156 159 159 165 163 161 162 164 167 170 172 170 170 173 176 173 167 155 161 166 168 196 187 164 175 199 217 204 188 186 168 153 176 202 187 186 185 178 177 182 189 199 195 193
158 157 160 166 167 168 167 170 171 173 175 174 171 173 174 174 174 172 172 170 170 186 189 180 182 193 200 196 186 185 189 187 190 193 190 195 193 193 190 196 205 200 207 203